Time[GMT],air_temperature[C](-3m),wind_speed[m/s](-4m),wind_gust[m/s](-4m),barometric_pressure[millibars](-3m),wind_2_direction[degrees_true](-4m),wind_2_gust[m/s](-4m),wind_2_gust_1s[m/s](-4m),wind_2_min[m/s](-4m),wind_2_percent_good[1](-4m),wind_2_speed[m/s](-4m),wind_direction[degrees_true](-4m),wind_gust_1s[m/s](-4m),wind_min[m/s](-4m)
2014-05-09 19:00,26.9,,,1013.47,52.43,8.55,9.55,4.26,1.00,7.09,,,
2014-05-09 20:00,26.7,,,1013.41,53.86,8.91,10.66,4.08,1.00,6.95,,,
2014-05-09 21:00,26.4,,,1013.11,63.58,8.22,10.57,3.98,1.00,6.69,,,
2014-05-09 22:00,26.4,,,1013.53,47.49,8.66,10.16,4.87,1.00,7.12,,,
2014-05-09 23:00,25.3,,,1013.89,42.08,9.55,10.32,4.61,1.00,7.53,,,
2014-05-10 00:00,25.8,,,1014.31,71.10,13.66,15.32,6.27,1.00,10.29,,,
2014-05-10 01:00,26.0,,,1014.97,81.10,12.08,13.45,5.90,1.00,9.96,,,
2014-05-10 02:00,26.2,,,1015.03,82.60,10.98,13.03,5.31,1.00,9.09,,,
2014-05-10 03:00,26.4,,,1014.43,74.20,9.92,11.44,4.70,1.00,7.99,,,
2014-05-10 04:00,26.5,,,1014.37,63.85,8.33,9.72,4.15,1.00,6.47,,,
2014-05-10 05:00,26.1,,,1013.65,58.63,8.08,9.15,3.60,1.00,6.46,,,
2014-05-10 06:00,26.4,,,1013.11,66.40,8.61,9.36,3.66,1.00,6.81,,,
2014-05-10 07:00,26.4,,,1012.99,58.01,8.09,9.25,4.02,1.00,6.54,,,
2014-05-10 08:00,26.4,,,1012.93,56.53,9.65,11.40,5.21,1.00,8.21,,,
2014-05-10 09:00,26.5,,,1012.99,54.68,10.39,12.01,4.74,1.00,8.64,,,
2014-05-10 10:00,,,,,,,,,,,,,
2014-05-10 11:00,24.7,,,1014.37,69.80,14.29,16.49,5.14,1.00,10.77,,,
2014-05-10 12:00,24.6,,,1014.79,26.20,7.33,8.87,3.46,1.00,5.99,,,
2014-05-10 13:00,22.5,,,1015.63,40.36,14.87,15.91,7.57,1.00,11.48,,,
2014-05-10 14:00,23.5,,,1015.75,7.40,9.35,9.86,5.43,1.00,7.75,,,
2014-05-10 15:00,22.3,,,1016.98,56.40,10.68,11.76,2.49,1.00,6.77,,,
2014-05-10 16:00,23.5,,,1016.07,65.37,10.84,11.80,4.87,1.00,8.58,,,
2014-05-10 17:00,23.1,,,1015.41,42.38,6.90,8.57,1.65,1.00,4.75,,,
2014-05-10 18:00,23.6,,,1014.69,44.13,8.78,10.43,1.58,1.00,6.94,,,
2014-05-10 19:00,24.6,,,1013.67,48.97,10.08,11.60,5.10,1.00,8.21,,,
2014-05-10 20:00,24.5,,,1013.13,53.23,9.99,11.86,4.99,1.00,8.08,,,
2014-05-10 21:00,24.5,,,1012.47,61.70,10.69,13.27,4.71,1.00,8.72,,,
2014-05-10 22:00,24.5,,,1012.47,86.00,11.42,12.92,5.03,1.00,9.40,,,
2014-05-10 23:00,24.6,,,1012.05,67.90,19.65,22.55,5.90,1.00,11.26,,,
2014-05-11 00:00,24.5,,,1012.83,73.60,11.24,13.21,5.70,1.00,9.39,,,
2014-05-11 01:00,24.7,,,1013.67,67.40,11.23,12.44,5.06,1.00,8.94,,,
2014-05-11 02:00,24.8,,,1012.83,69.70,16.60,18.56,6.57,1.00,11.39,,,
2014-05-11 03:00,25.0,,,1014.03,49.77,6.01,7.22,1.80,1.00,4.44,,,
2014-05-11 04:00,25.5,,,1013.43,75.70,10.83,12.00,4.53,1.00,8.51,,,
2014-05-11 05:00,25.3,,,1012.71,84.90,10.19,10.78,4.74,1.00,8.00,,,
2014-05-11 06:00,25.5,,,1012.35,91.80,10.47,11.97,4.09,1.00,8.20,,,
2014-05-11 07:00,25.8,,,1011.87,99.80,9.32,10.98,3.17,1.00,7.27,,,
2014-05-11 08:00,25.9,,,1011.75,114.30,7.68,8.91,3.42,1.00,5.94,,,
2014-05-11 09:00,26.0,,,1011.81,128.90,7.01,8.12,3.06,1.00,5.83,,,
2014-05-11 10:00,26.4,,,1012.17,124.20,8.94,10.54,4.39,1.00,7.35,,,
2014-05-11 11:00,25.4,,,1012.95,131.00,10.52,12.40,5.13,1.00,8.66,,,
2014-05-11 12:00,26.7,,,1013.55,132.30,9.20,10.80,4.71,1.00,7.65,,,
2014-05-11 13:00,26.8,,,1014.09,122.70,8.41,9.69,4.05,1.00,7.08,,,
2014-05-11 14:00,26.9,,,1014.51,123.40,7.83,8.82,3.29,1.00,6.36,,,
2014-05-11 15:00,27.1,,,1014.33,114.70,6.71,8.39,3.28,1.00,5.56,,,
2014-05-11 16:00,27.3,,,1014.03,113.80,6.66,8.57,3.40,1.00,5.67,,,
2014-05-11 17:00,27.3,,,1013.67,108.30,6.65,8.03,2.87,1.00,5.39,,,
2014-05-11 18:00,27.3,,,1013.79,110.10,6.93,8.43,2.60,1.00,5.69,,,
2014-05-11 19:00,27.1,,,1013.79,126.50,6.25,7.62,2.71,1.00,5.22,,,
2014-05-11 20:00,26.3,,,1012.71,98.50,8.09,9.46,3.95,1.00,6.84,,,
2014-05-11 21:00,26.4,,,1011.09,71.00,13.84,15.77,1.58,1.00,10.20,,,
2014-05-11 22:00,27.0,,,1011.93,92.50,12.67,15.17,6.69,1.00,10.72,,,
2014-05-11 23:00,26.8,,,1013.01,103.30,12.07,13.08,5.33,1.00,9.40,,,
2014-05-12 00:00,26.5,,,1013.61,102.50,12.74,14.80,5.26,1.00,10.29,,,
2014-05-12 01:00,26.7,,,1014.03,100.40,10.19,12.32,4.72,1.00,8.34,,,
2014-05-12 02:00,26.9,,,1014.03,101.50,12.18,14.66,5.22,1.00,9.53,,,
2014-05-12 03:00,27.1,,,1014.93,108.70,10.38,12.86,4.30,1.00,8.30,,,
2014-05-12 04:00,27.1,,,1014.33,120.80,10.07,11.11,4.83,1.00,8.01,,,
2014-05-12 05:00,27.0,,,1013.49,103.00,9.27,10.96,3.10,1.00,7.65,,,
2014-05-12 06:00,27.1,,,1012.71,101.30,10.49,11.56,5.05,1.00,8.42,,,
2014-05-12 07:00,27.1,,,1011.99,95.20,9.74,11.86,4.78,1.00,8.19,,,
2014-05-12 08:00,27.1,,,1011.27,72.30,9.99,11.35,5.10,1.00,8.32,,,
2014-05-12 09:00,27.1,,,1012.23,82.40,10.09,11.26,4.42,1.00,8.21,,,
2014-05-12 10:00,27.1,,,1013.13,90.80,10.05,11.59,4.95,1.00,8.14,,,
2014-05-12 11:00,26.5,,,1013.85,79.00,9.54,10.33,3.74,1.00,6.89,,,
2014-05-12 12:00,27.3,,,1014.57,95.60,9.18,10.86,4.59,1.00,7.63,,,
2014-05-12 13:00,27.3,,,1015.23,94.80,8.77,9.80,4.31,1.00,7.00,,,
2014-05-12 14:00,27.4,,,1015.65,100.50,8.76,10.15,4.70,1.00,7.61,,,
2014-05-12 15:00,27.4,,,1015.71,87.40,9.52,10.99,4.73,1.00,7.56,,,
2014-05-12 16:00,27.3,,,1015.29,88.90,8.40,9.82,3.83,1.00,7.14,,,
2014-05-12 17:00,27.2,,,1014.81,95.20,8.80,11.03,3.72,1.00,7.29,,,
2014-05-12 18:00,26.8,,,1014.27,80.40,9.94,11.24,4.80,1.00,8.21,,,
2014-05-12 19:00,25.4,,,1014.03,113.50,10.92,12.97,5.82,1.00,9.25,,,
2014-05-12 20:00,26.2,,,1013.85,95.70,9.88,11.27,5.20,1.00,8.32,,,
2014-05-12 21:00,26.3,,,1013.85,86.20,8.92,10.74,3.83,1.00,7.48,,,
2014-05-12 22:00,26.0,,,1014.15,89.30,12.88,14.37,4.66,1.00,9.56,,,
2014-05-12 23:00,25.7,,,1014.69,83.10,11.58,13.41,5.25,1.00,9.57,,,
2014-05-13 00:00,25.6,,,1015.11,91.50,12.29,12.87,6.11,1.00,9.64,,,
2014-05-13 01:00,25.4,,,1015.65,92.60,13.18,15.32,6.42,1.00,10.89,,,
2014-05-13 02:00,25.2,,,1015.83,98.20,12.80,14.47,6.10,1.00,10.71,,,
2014-05-13 03:00,25.7,,,1016.07,94.70,11.09,12.56,5.33,1.00,9.03,,,
2014-05-13 04:00,25.5,,,1015.71,112.20,12.00,13.46,4.89,1.00,8.96,,,
2014-05-13 05:00,25.4,,,1014.63,98.30,7.19,8.40,2.31,1.00,5.86,,,
2014-05-13 06:00,25.8,,,1013.61,84.60,7.51,8.40,1.98,1.00,5.79,,,
2014-05-13 07:00,26.0,,,1013.25,94.00,7.72,9.00,2.77,1.00,6.22,,,
2014-05-13 08:00,26.3,,,1013.25,85.00,6.96,8.36,3.07,1.00,5.77,,,
2014-05-13 09:00,26.5,,,1013.19,87.40,7.93,9.00,2.52,1.00,6.02,,,
2014-05-13 10:00,26.9,,,1013.73,96.10,10.29,11.03,4.66,1.00,7.93,,,
2014-05-13 11:00,27.1,,,1014.09,98.40,9.17,11.11,3.82,1.00,7.81,,,
2014-05-13 12:00,27.1,,,1014.69,94.50,8.53,9.79,4.53,1.00,7.05,,,
2014-05-13 13:00,27.2,,,1015.11,97.60,8.62,10.33,3.32,1.00,7.18,,,
2014-05-13 14:00,27.3,,,1015.17,99.90,9.34,11.39,4.25,1.00,7.57,,,
2014-05-13 15:00,27.1,,,1015.35,93.20,8.87,9.95,3.46,1.00,7.03,,,
2014-05-13 16:00,27.0,,,1015.11,88.10,7.40,9.33,2.92,1.00,6.18,,,
2014-05-13 17:00,27.0,,,1014.57,83.00,7.94,9.52,3.68,1.00,6.49,,,
2014-05-13 18:00,27.5,,,1013.79,96.60,8.95,10.37,4.61,1.00,7.53,,,
2014-05-13 19:00,27.1,,,1013.19,76.90,9.87,10.57,4.17,1.00,7.74,,,
2014-05-13 20:00,27.0,,,1013.01,78.60,8.77,10.18,4.20,1.00,6.82,,,
2014-05-13 21:00,26.5,,,1013.01,76.50,10.92,12.04,5.57,1.00,9.03,,,
2014-05-13 22:00,27.1,,,1013.13,83.10,9.72,11.36,5.37,1.00,8.28,,,
2014-05-13 23:00,27.2,,,1013.97,82.90,8.81,10.02,4.37,1.00,7.36,,,
2014-05-14 00:00,27.3,,,1014.39,69.90,9.79,10.89,4.91,1.00,7.72,,,
2014-05-14 01:00,26.9,,,1014.81,67.20,9.91,11.44,4.49,1.00,7.97,,,
2014-05-14 02:00,26.6,,,1015.05,82.60,10.38,11.44,4.82,1.00,8.26,,,
2014-05-14 03:00,26.1,,,1014.87,72.80,10.65,11.84,5.01,1.00,8.95,,,
2014-05-14 04:00,26.9,,,1014.69,81.10,10.62,11.62,4.28,1.00,8.27,,,
2014-05-14 05:00,26.9,,,1013.97,82.80,9.70,10.88,4.64,1.00,8.01,,,
2014-05-14 06:00,26.3,,,1013.67,92.50,10.55,12.24,4.47,1.00,8.26,,,
2014-05-14 07:00,26.7,,,1013.19,88.50,9.48,10.33,4.13,1.00,7.31,,,
2014-05-14 08:00,26.7,,,1013.37,85.90,9.44,10.99,3.73,1.00,7.46,,,
2014-05-14 09:00,26.1,,,1013.61,88.50,9.44,10.65,2.27,1.00,6.20,,,
2014-05-14 10:00,26.9,,,1014.09,81.60,9.54,11.44,4.67,1.00,7.78,,,
2014-05-14 11:00,26.9,,,1014.69,82.10,10.35,11.52,5.15,1.00,8.14,,,
2014-05-14 12:00,26.8,,,1015.35,91.40,8.61,10.24,3.97,1.00,6.98,,,
2014-05-14 13:00,24.1,,,1016.25,93.70,12.86,14.33,5.06,1.00,9.67,,,
2014-05-14 14:00,26.7,,,1016.01,80.40,6.50,7.89,2.95,1.00,5.15,,,
2014-05-14 15:00,27.1,,,1015.65,90.20,9.03,10.46,4.64,1.00,7.30,,,
2014-05-14 16:00,27.1,,,1015.41,93.90,9.27,10.47,3.33,1.00,7.05,,,
2014-05-14 17:00,26.8,,,1015.41,80.20,8.49,9.38,3.84,1.00,6.39,,,
2014-05-14 18:00,27.2,,,1014.51,78.30,8.26,9.79,3.36,1.00,6.09,,,
2014-05-14 19:00,26.8,,,1014.03,83.90,8.36,9.59,3.35,1.00,6.61,,,
2014-05-14 20:00,26.9,,,1013.79,66.50,9.22,9.87,4.33,1.00,7.47,,,
2014-05-14 21:00,27.2,,,1013.73,77.00,8.23,10.79,4.17,1.00,7.05,,,
2014-05-14 22:00,27.2,,,1014.15,77.70,8.44,9.98,3.70,1.00,7.38,,,
2014-05-14 23:00,27.1,,,1014.75,69.30,8.61,10.10,3.76,1.00,7.07,,,
2014-05-15 00:00,27.0,,,1014.99,72.60,9.70,10.80,5.11,1.00,7.85,,,
2014-05-15 01:00,27.1,,,1015.47,72.50,8.92,10.38,4.58,1.00,7.46,,,
2014-05-15 02:00,27.0,,,1015.89,74.50,9.46,10.95,5.10,1.00,7.98,,,
2014-05-15 03:00,27.0,,,1015.71,75.70,9.04,11.00,4.59,1.00,7.55,,,
2014-05-15 04:00,27.0,,,1015.17,76.70,10.03,11.04,4.51,1.00,7.60,,,
2014-05-15 05:00,26.9,,,1014.57,79.60,8.82,9.79,4.29,1.00,7.15,,,
2014-05-15 06:00,27.0,,,1013.79,80.70,8.85,10.22,4.57,1.00,7.40,,,
2014-05-15 07:00,26.8,,,1013.31,84.20,9.28,10.71,4.08,1.00,7.78,,,
2014-05-15 08:00,26.7,,,1013.55,87.20,9.59,10.63,4.51,1.00,7.26,,,
2014-05-15 09:00,25.8,,,1014.21,84.00,12.18,13.59,4.86,1.00,10.01,,,
2014-05-15 10:00,26.6,,,1014.87,105.00,7.26,9.43,3.39,1.00,5.91,,,
2014-05-15 11:00,26.8,,,1015.47,93.50,11.29,12.63,4.15,1.00,8.00,,,
2014-05-15 12:00,27.2,,,1016.13,87.30,9.66,11.03,4.34,1.00,7.74,,,
2014-05-15 13:00,27.2,,,1016.43,80.90,9.00,10.63,4.28,1.00,7.49,,,
2014-05-15 14:00,27.2,,,1016.49,85.30,8.30,9.77,3.85,1.00,6.90,,,
2014-05-15 15:00,27.2,,,1016.43,87.80,8.59,10.30,4.27,1.00,6.93,,,
2014-05-15 16:00,27.0,,,1016.19,71.00,8.32,9.79,4.53,1.00,7.07,,,
2014-05-15 17:00,27.1,,,1015.89,63.64,8.20,9.59,3.53,1.00,6.05,,,
2014-05-15 18:00,27.3,,,1015.35,75.40,8.25,8.91,3.47,1.00,6.64,,,
2014-05-15 19:00,27.1,,,1014.69,70.90,8.65,9.70,4.20,1.00,7.12,,,
2014-05-15 20:00,27.2,,,1014.21,69.20,9.08,10.39,4.28,1.00,7.40,,,
2014-05-15 21:00,27.2,,,1014.09,77.10,8.96,10.99,4.80,1.00,7.47,,,
2014-05-15 22:00,27.0,,,1014.21,71.90,8.67,10.30,4.26,1.00,7.12,,,
2014-05-15 23:00,27.0,,,1014.69,72.60,8.89,10.75,4.50,1.00,7.48,,,
2014-05-16 00:00,27.0,,,1015.05,70.70,9.35,10.77,4.65,1.00,7.79,,,
2014-05-16 01:00,27.0,,,1015.53,75.40,9.37,10.72,4.59,1.00,7.66,,,
2014-05-16 02:00,27.0,,,1015.53,67.90,9.65,11.11,4.57,1.00,7.94,,,
2014-05-16 03:00,26.9,,,1015.23,69.10,9.41,10.54,4.11,1.00,7.62,,,
2014-05-16 04:00,26.8,,,1014.81,71.00,8.61,9.72,3.18,1.00,7.11,,,
2014-05-16 05:00,26.8,,,1014.27,70.30,8.76,10.08,4.51,1.00,7.44,,,
2014-05-16 06:00,26.6,,,1013.79,64.93,8.31,9.41,3.85,1.00,6.56,,,
2014-05-16 07:00,26.7,,,1013.31,71.00,8.34,9.61,4.15,1.00,6.94,,,
2014-05-16 08:00,26.8,,,1013.37,69.50,8.30,9.35,4.19,1.00,6.75,,,
2014-05-16 09:00,26.6,,,1013.43,82.70,10.01,11.48,3.80,1.00,7.53,,,
2014-05-16 10:00,26.8,,,1014.03,72.20,8.83,11.15,4.50,1.00,7.39,,,
2014-05-16 11:00,26.9,,,1014.57,76.50,9.45,10.79,4.74,1.00,7.58,,,
2014-05-16 12:00,27.0,,,1014.99,77.60,8.70,10.80,4.22,1.00,7.34,,,
2014-05-16 13:00,27.0,,,1015.29,81.70,8.46,10.08,4.29,1.00,7.08,,,
2014-05-16 14:00,27.0,,,1015.29,78.60,9.09,10.89,4.61,1.00,7.52,,,
2014-05-16 15:00,27.0,,,1015.29,85.80,8.64,9.87,4.40,1.00,6.98,,,
2014-05-16 16:00,27.0,,,1014.63,80.80,8.36,9.92,3.03,1.00,7.08,,,
2014-05-16 17:00,27.1,,,1014.27,88.70,7.71,9.58,3.15,1.00,6.33,,,
2014-05-16 18:00,27.2,,,1013.85,85.30,7.39,8.73,2.60,1.00,6.09,,,
2014-05-16 19:00,27.2,,,1013.19,87.00,7.47,8.79,3.17,1.00,6.18,,,
2014-05-16 20:00,27.2,,,1012.53,86.40,7.68,9.05,2.76,1.00,6.22,,,
2014-05-16 21:00,27.1,,,1012.11,83.80,7.35,8.52,2.75,1.00,6.02,,,
2014-05-16 22:00,27.2,,,1012.29,82.20,7.87,8.85,3.51,1.00,6.40,,,
2014-05-16 23:00,26.8,,,1012.59,76.30,8.81,10.62,4.25,1.00,6.98,,,
2014-05-17 00:00,26.8,,,1013.01,79.40,9.39,10.64,4.20,1.00,7.60,,,
2014-05-17 01:00,26.8,,,1013.37,78.10,8.78,10.19,4.26,1.00,7.27,,,
2014-05-17 02:00,26.8,,,1013.91,81.20,8.00,9.67,3.69,1.00,6.77,,,
2014-05-17 03:00,26.7,,,1013.97,66.50,8.91,9.88,4.07,1.00,6.91,,,
2014-05-17 04:00,26.7,,,1013.55,76.80,7.87,9.06,3.92,1.00,6.55,,,
2014-05-17 05:00,26.5,,,1012.95,72.80,7.83,9.20,3.44,1.00,6.57,,,
2014-05-17 06:00,26.5,,,1012.59,74.30,7.76,9.48,2.69,1.00,5.99,,,
2014-05-17 07:00,26.5,,,1012.29,74.60,6.81,8.01,2.97,1.00,5.39,,,
2014-05-17 08:00,26.4,,,1012.23,77.80,6.89,7.93,3.52,1.00,5.75,,,
2014-05-17 09:00,26.5,,,1012.59,78.30,6.85,7.95,3.06,1.00,5.58,,,
2014-05-17 10:00,26.5,,,1013.13,73.60,7.55,8.61,2.96,1.00,5.78,,,
2014-05-17 11:00,26.7,,,1013.61,67.90,6.97,8.10,3.01,1.00,5.69,,,
2014-05-17 12:00,26.6,,,1013.97,69.50,7.65,9.30,3.78,1.00,6.09,,,
2014-05-17 13:00,26.7,,,1014.15,73.10,7.56,8.90,3.05,1.00,6.04,,,
2014-05-17 14:00,26.7,,,1014.27,75.20,7.76,9.11,3.93,1.00,5.92,,,
2014-05-17 15:00,26.7,,,1014.21,77.90,6.91,7.61,2.85,1.00,5.62,,,
2014-05-17 16:00,26.7,,,1013.91,77.80,6.23,7.40,2.65,1.00,5.20,,,
2014-05-17 17:00,26.7,,,1013.43,87.60,5.69,7.15,2.80,1.00,4.84,,,
2014-05-17 18:00,26.8,,,1012.65,86.70,6.84,8.34,3.31,1.00,5.63,,,
2014-05-17 19:00,26.9,,,1012.29,87.40,7.06,8.23,0.78,1.00,5.58,,,
2014-05-17 20:00,26.9,,,1011.81,76.10,6.33,7.68,3.31,1.00,5.25,,,
2014-05-17 21:00,26.9,,,1011.63,75.90,6.45,7.60,3.15,1.00,5.11,,,
2014-05-17 22:00,26.8,,,1011.81,80.00,6.09,7.71,2.34,1.00,5.10,,,
2014-05-17 23:00,26.7,,,1012.05,77.40,6.38,8.06,3.05,1.00,5.33,,,
2014-05-18 00:00,26.7,,,1012.65,71.00,6.74,7.84,3.02,1.00,5.49,,,
2014-05-18 01:00,26.6,,,1013.01,70.10,7.27,8.41,3.49,1.00,5.78,,,
2014-05-18 02:00,26.6,,,1013.31,80.70,7.06,8.39,2.54,1.00,5.62,,,
2014-05-18 03:00,26.6,,,1013.19,76.00,7.91,9.51,3.84,1.00,6.52,,,
2014-05-18 04:00,26.5,,,1012.89,66.40,7.45,9.17,4.15,1.00,6.38,,,
2014-05-18 05:00,26.5,,,1012.71,68.80,6.73,8.32,2.34,1.00,5.74,,,
2014-05-18 06:00,26.5,,,1012.53,74.80,6.86,8.40,2.57,1.00,5.33,,,
2014-05-18 07:00,26.5,,,1012.59,80.20,6.97,8.25,3.11,1.00,5.68,,,
2014-05-18 08:00,26.5,,,1012.77,90.70,7.13,8.10,2.99,1.00,5.74,,,
2014-05-18 09:00,26.5,,,1012.95,89.20,6.95,8.08,3.43,1.00,5.52,,,
2014-05-18 10:00,26.6,,,1013.37,93.80,7.11,8.43,3.15,1.00,5.79,,,
2014-05-18 11:00,26.8,,,1013.67,97.90,6.60,8.07,2.98,1.00,5.48,,,
2014-05-18 12:00,26.9,,,1014.09,104.70,7.06,8.07,3.39,1.00,5.57,,,
2014-05-18 13:00,26.9,,,1014.15,104.80,6.96,8.04,3.32,1.00,5.86,,,
2014-05-18 14:00,26.9,,,1014.39,102.80,7.02,8.95,2.68,1.00,5.72,,,
2014-05-18 15:00,27.1,,,1014.57,98.00,6.98,8.01,2.48,1.00,5.41,,,
2014-05-18 16:00,27.1,,,1014.09,101.90,7.32,8.43,2.44,1.00,5.55,,,
2014-05-18 17:00,27.2,,,1013.91,108.70,6.73,8.12,3.04,1.00,5.45,,,
2014-05-18 18:00,27.1,,,1013.43,100.80,6.56,8.00,3.48,1.00,5.58,,,
2014-05-18 19:00,27.2,,,1013.01,104.00,6.66,8.06,2.54,1.00,5.38,,,
2014-05-18 20:00,27.4,,,1012.95,100.10,6.52,7.85,3.29,1.00,5.54,,,
2014-05-18 21:00,27.4,,,1012.65,100.80,7.05,8.91,3.39,1.00,5.87,,,
2014-05-18 22:00,27.3,,,1012.65,93.80,6.87,8.50,3.58,1.00,5.90,,,
2014-05-18 23:00,27.1,,,1013.19,91.60,6.73,8.03,3.20,1.00,5.66,,,
2014-05-19 00:00,27.3,,,1013.73,88.40,7.40,8.40,3.01,1.00,5.91,,,
2014-05-19 01:00,27.1,,,1014.15,81.40,7.84,9.74,3.48,1.00,6.74,,,
2014-05-19 02:00,27.1,,,1014.27,82.70,8.70,10.18,4.13,1.00,7.31,,,
2014-05-19 03:00,27.0,,,1014.57,78.00,8.64,10.32,3.65,1.00,6.95,,,
2014-05-19 04:00,27.0,,,1014.09,80.50,8.85,10.29,4.71,1.00,7.29,,,
2014-05-19 05:00,27.0,,,1013.79,88.80,8.70,9.54,4.20,1.00,7.05,,,
2014-05-19 06:00,26.9,,,1013.37,87.20,8.14,9.08,3.75,1.00,6.76,,,
2014-05-19 07:00,26.9,,,1013.25,91.00,8.87,10.30,4.19,1.00,7.38,,,
2014-05-19 08:00,27.1,,,1013.43,94.60,9.25,10.58,4.07,1.00,7.17,,,
2014-05-19 09:00,27.1,,,1014.03,90.60,8.63,10.07,3.21,1.00,6.97,,,
2014-05-19 10:00,27.1,,,1014.21,91.50,9.47,10.43,4.77,1.00,7.56,,,
2014-05-19 11:00,27.2,,,1014.69,91.80,9.66,10.56,4.42,1.00,7.58,,,
2014-05-19 12:00,27.2,,,1014.99,94.80,8.94,10.42,4.40,1.00,7.39,,,
2014-05-19 13:00,27.3,,,1015.29,92.70,8.90,10.08,4.06,1.00,7.34,,,
2014-05-19 14:00,27.3,,,1015.65,97.60,8.76,10.42,4.39,1.00,7.40,,,
2014-05-19 15:00,27.4,,,1015.65,96.50,8.85,10.39,3.81,1.00,7.30,,,
2014-05-19 16:00,27.4,,,1015.35,99.10,8.74,10.38,4.50,1.00,7.38,,,
2014-05-19 17:00,27.5,,,1014.93,95.20,8.90,10.52,4.05,1.00,7.03,,,
2014-05-19 18:00,27.6,,,1014.33,103.20,8.71,9.86,3.50,1.00,7.32,,,
2014-05-19 19:00,27.6,,,1014.09,103.00,8.25,9.81,3.84,1.00,6.77,,,
2014-05-19 20:00,27.6,,,1013.61,109.20,8.40,9.38,3.76,1.00,6.73,,,
2014-05-19 21:00,27.6,,,1013.49,102.90,6.92,8.23,3.23,1.00,5.59,,,
2014-05-19 22:00,27.5,,,1013.79,102.70,7.14,8.56,3.19,1.00,6.03,,,
2014-05-19 23:00,27.5,,,1014.09,94.70,7.95,9.50,4.01,1.00,6.80,,,
2014-05-20 00:00,27.5,,,1014.57,105.20,8.44,9.66,3.83,1.00,6.79,,,
2014-05-20 01:00,27.5,,,1014.87,106.00,9.19,10.81,4.08,1.00,7.59,,,
2014-05-20 02:00,27.5,,,1015.41,98.60,8.10,9.80,4.05,1.00,6.64,,,
2014-05-20 03:00,27.4,,,1015.35,105.00,7.88,9.55,3.94,1.00,6.86,,,
2014-05-20 04:00,27.3,,,1014.63,93.80,9.00,10.68,4.55,1.00,7.36,,,
2014-05-20 05:00,27.2,,,1013.91,97.00,8.70,9.83,3.93,1.00,7.13,,,
2014-05-20 06:00,26.5,,,1013.49,106.40,8.98,11.01,4.39,1.00,7.20,,,
2014-05-20 07:00,27.1,,,1013.13,111.70,8.52,10.25,4.26,1.00,6.70,,,
2014-05-20 08:00,27.4,,,1013.07,123.80,10.09,11.78,4.69,1.00,8.67,,,
2014-05-20 09:00,27.3,,,1013.61,118.40,9.39,10.69,4.63,1.00,7.65,,,
2014-05-20 10:00,27.3,,,1014.09,124.40,9.24,10.73,3.55,1.00,7.38,,,
2014-05-20 11:00,27.4,,,1014.69,122.30,8.21,9.96,4.48,1.00,7.14,,,
2014-05-20 12:00,27.6,,,1015.11,124.20,8.46,10.03,3.76,1.00,6.80,,,
2014-05-20 13:00,27.6,,,1015.65,129.70,8.64,9.85,3.31,1.00,6.57,,,
2014-05-20 14:00,27.5,,,1015.47,123.40,7.39,9.68,2.71,1.00,6.42,,,
2014-05-20 15:00,27.5,,,1015.59,128.50,6.77,8.05,2.55,1.00,5.55,,,
2014-05-20 16:00,27.6,,,1015.83,127.50,5.84,6.93,2.49,1.00,4.86,,,
2014-05-20 17:00,27.7,,,1015.59,125.00,5.74,6.67,2.02,1.00,4.52,,,
2014-05-20 18:00,27.7,,,1014.93,117.80,5.60,6.57,2.94,1.00,4.77,,,
2014-05-20 19:00,27.8,,,1014.63,111.30,5.67,7.01,2.76,1.00,4.59,,,
2014-05-20 20:00,27.7,,,1014.21,109.50,5.87,6.83,2.33,1.00,4.81,,,
2014-05-20 21:00,27.9,,,1014.15,102.70,4.50,5.56,1.88,1.00,3.81,,,
2014-05-20 22:00,27.6,,,1014.33,96.40,6.21,6.82,3.10,1.00,4.99,,,
2014-05-20 23:00,27.6,,,1014.57,89.60,5.99,7.06,1.74,1.00,4.90,,,
2014-05-21 00:00,27.5,,,1014.87,93.20,6.45,7.80,3.18,1.00,5.58,,,
2014-05-21 01:00,27.6,,,1015.23,98.20,6.76,7.96,2.42,1.00,5.41,,,
2014-05-21 02:00,27.6,,,1015.59,98.20,6.66,8.50,3.05,1.00,5.49,,,
2014-05-21 03:00,27.5,,,1015.47,93.00,7.01,8.44,3.30,1.00,5.79,,,
2014-05-21 04:00,27.4,,,1015.05,103.40,6.81,8.09,2.60,1.00,5.51,,,
2014-05-21 05:00,27.4,,,1014.45,108.20,7.30,8.42,3.14,1.00,5.70,,,
2014-05-21 06:00,27.3,,,1013.67,112.80,7.66,9.49,3.56,1.00,6.41,,,
2014-05-21 07:00,27.3,,,1013.49,116.30,7.86,9.70,3.88,1.00,6.43,,,
2014-05-21 08:00,27.2,,,1013.79,114.10,6.63,7.88,3.43,1.00,5.54,,,
2014-05-21 09:00,27.3,,,1014.39,112.40,6.63,7.33,2.70,1.00,5.18,,,
2014-05-21 10:00,27.2,,,1014.51,116.20,6.87,8.49,3.42,1.00,5.83,,,
2014-05-21 11:00,27.4,,,1015.17,113.80,6.77,8.71,2.85,1.00,5.60,,,
2014-05-21 12:00,27.6,,,1015.41,121.50,6.95,8.97,3.25,1.00,5.84,,,
2014-05-21 13:00,27.5,,,1015.77,130.90,6.07,7.58,2.83,1.00,5.06,,,
2014-05-21 14:00,27.5,,,1015.89,127.60,5.68,6.72,2.54,1.00,4.62,,,
2014-05-21 15:00,27.6,,,1016.07,127.70,4.76,5.78,1.48,1.00,4.06,,,
2014-05-21 16:00,27.6,,,1015.83,128.50,5.78,6.95,2.47,1.00,4.70,,,
2014-05-21 17:00,27.6,,,1015.41,133.90,5.92,6.65,2.58,1.00,4.87,,,
2014-05-21 18:00,27.7,,,1015.05,129.80,6.08,7.94,2.10,1.00,5.12,,,
2014-05-21 19:00,27.8,,,1014.93,119.10,5.27,6.28,1.69,1.00,4.11,,,
2014-05-21 20:00,27.9,,,1014.81,109.50,4.87,5.83,2.31,1.00,4.09,,,
2014-05-21 21:00,27.9,,,1014.93,96.30,5.43,6.13,2.18,1.00,4.35,,,
2014-05-21 22:00,27.6,,,1015.11,87.60,5.79,6.59,0.79,1.00,4.78,,,
2014-05-21 23:00,27.6,,,1015.59,72.00,5.45,6.78,1.97,1.00,4.65,,,
2014-05-22 00:00,27.6,,,1016.07,81.80,6.64,8.17,3.36,1.00,5.63,,,
2014-05-22 01:00,27.7,,,1016.25,78.40,6.73,8.58,3.08,1.00,5.64,,,
2014-05-22 02:00,27.6,,,1016.55,83.60,6.97,8.44,3.33,1.00,5.68,,,
2014-05-22 03:00,27.5,,,1016.37,102.80,9.11,10.70,4.75,1.00,7.62,,,
2014-05-22 04:00,27.5,,,1015.89,105.70,8.21,9.57,4.07,1.00,6.92,,,
2014-05-22 05:00,27.4,,,1015.29,108.40,7.62,9.44,3.20,1.00,6.28,,,
2014-05-22 06:00,27.2,,,1014.69,107.90,7.31,8.90,3.42,1.00,5.93,,,
2014-05-22 07:00,27.2,,,1014.51,109.40,7.09,8.51,3.96,1.00,5.95,,,
2014-05-22 08:00,27.2,,,1014.63,97.90,7.96,9.78,3.59,1.00,6.51,,,
2014-05-22 09:00,27.2,,,1015.05,99.50,7.25,8.68,3.72,1.00,6.02,,,
2014-05-22 10:00,27.2,,,1015.65,95.20,8.05,9.85,3.66,1.00,6.53,,,
2014-05-22 11:00,27.4,,,1016.25,91.70,7.27,8.37,3.27,1.00,5.91,,,
2014-05-22 12:00,27.4,,,1016.49,91.40,6.97,7.97,3.48,1.00,5.75,,,
2014-05-22 13:00,27.5,,,1017.15,96.50,7.49,8.83,3.24,1.00,5.98,,,
2014-05-22 14:00,27.6,,,1017.33,97.50,7.24,8.36,3.31,1.00,5.96,,,
2014-05-22 15:00,27.5,,,1017.21,92.10,6.96,8.44,3.24,1.00,5.58,,,
2014-05-22 16:00,27.6,,,1017.21,88.50,6.91,8.10,2.69,1.00,5.80,,,
2014-05-22 17:00,27.7,,,1016.91,103.40,6.67,7.99,3.37,1.00,5.50,,,
2014-05-22 18:00,27.7,,,1016.31,98.00,7.78,8.74,3.73,1.00,6.29,,,
2014-05-22 19:00,27.9,,,1015.71,99.00,7.31,8.79,3.53,1.00,5.97,,,
2014-05-22 20:00,27.7,,,1015.53,91.40,6.78,7.88,2.81,1.00,5.69,,,
2014-05-22 21:00,27.8,,,1015.41,91.60,7.84,9.20,3.71,1.00,6.21,,,
2014-05-22 22:00,27.7,,,1015.59,92.10,7.94,9.81,4.23,1.00,6.68,,,
2014-05-22 23:00,27.6,,,1015.65,89.10,8.56,9.64,4.09,1.00,6.84,,,
2014-05-23 00:00,27.5,,,1016.01,85.40,9.94,11.20,4.34,1.00,7.82,,,
2014-05-23 01:00,27.5,,,1016.55,83.50,9.46,11.54,4.33,1.00,7.55,,,
2014-05-23 02:00,27.5,,,1017.09,86.70,9.83,11.47,4.44,1.00,7.83,,,
2014-05-23 03:00,27.5,,,1017.39,78.50,9.40,10.82,3.76,1.00,7.41,,,
2014-05-23 04:00,27.5,,,1016.85,82.50,8.87,10.93,4.05,1.00,7.16,,,
2014-05-23 05:00,27.4,,,1016.19,93.60,8.63,10.56,3.73,1.00,6.90,,,
2014-05-23 06:00,27.3,,,1015.59,91.90,8.63,10.20,4.32,1.00,7.26,,,
2014-05-23 07:00,27.2,,,1015.47,105.70,9.03,10.54,3.99,1.00,7.01,,,
2014-05-23 08:00,27.4,,,1015.23,102.30,9.13,10.52,4.53,1.00,7.40,,,
2014-05-23 09:00,27.3,,,1015.59,102.10,9.09,10.56,4.35,1.00,7.38,,,
2014-05-23 10:00,27.4,,,1016.13,98.90,10.23,11.37,4.10,1.00,7.97,,,
2014-05-23 11:00,27.5,,,1016.49,98.20,10.64,11.42,4.05,1.00,8.45,,,
2014-05-23 12:00,27.4,,,1016.97,89.20,10.04,11.32,5.80,1.00,8.77,,,
2014-05-23 13:00,27.5,,,1017.39,91.30,10.06,11.39,4.97,1.00,8.49,,,
2014-05-23 14:00,27.6,,,1017.87,87.60,10.10,11.62,4.36,1.00,8.41,,,
2014-05-23 15:00,27.6,,,1017.93,87.00,10.37,11.70,5.06,1.00,8.27,,,
2014-05-23 16:00,27.8,,,1017.63,100.40,9.88,11.02,4.16,1.00,8.16,,,
2014-05-23 17:00,27.7,,,1017.27,95.10,9.14,11.51,4.45,1.00,7.75,,,
2014-05-23 18:00,27.7,,,1016.61,102.80,9.18,10.28,4.48,1.00,7.59,,,
2014-05-23 19:00,27.7,,,1016.19,101.30,8.10,9.54,3.69,1.00,6.83,,,
2014-05-23 20:00,27.6,,,1015.71,99.20,7.59,9.07,3.52,1.00,6.28,,,
2014-05-23 21:00,27.6,,,1015.47,89.90,7.71,8.91,3.82,1.00,6.42,,,
2014-05-23 22:00,27.6,,,1016.01,84.80,7.85,9.48,4.28,1.00,6.71,,,
2014-05-23 23:00,27.5,,,1016.49,80.00,9.08,10.43,4.26,1.00,7.28,,,
2014-05-24 00:00,27.5,,,1017.09,85.00,8.86,10.62,3.48,1.00,7.20,,,
2014-05-24 01:00,27.4,,,1017.87,80.00,8.48,10.32,4.12,1.00,7.12,,,
2014-05-24 02:00,27.4,,,1018.05,80.70,9.32,10.99,3.62,1.00,7.74,,,
2014-05-24 03:00,27.4,,,1017.99,78.50,9.64,11.37,4.95,1.00,7.78,,,
2014-05-24 04:00,27.4,,,1017.63,73.80,8.86,10.69,4.32,1.00,7.13,,,
2014-05-24 05:00,27.1,,,1016.91,81.30,9.36,11.19,4.24,1.00,7.93,,,
2014-05-24 06:00,27.2,,,1016.43,82.40,10.31,11.57,5.05,1.00,8.51,,,